Hourly Data Report for July 16, 2004

SHERBROOKE A
QUEBEC

45°26'00.000" N
71°41'00.000" W
241.40 m
7028124
71610
YSC

Download Data

Hourly Data (July 2004)
Hourly Data Report for July 16, 2004
TIME
LST
Temp Definition
°C
Dew Point Definition
°C
Rel Hum Definition
%
Precip. Amount Definition
mm

Wind Dir Definition
10's deg

Wind Spd Definition
km/h
Visibility Definition
km
Stn Press Definition
kPa
Hmdx Definition


Wind Chill Definition


Weather Definition


00:00 14.5 14.4 99     0 2.7 97.28      
01:00 16.6 16.1 97   21 4 15.0 97.31      
02:00 15.4 15.2 99     0 1.8 97.29      
03:00 15.8 15.4 97     0 11.3 97.29      
04:00 16.2 15.8 97   9 4 2.7 97.30     Rain
05:00 16.5 16.2 98     0 2.1 97.37     Moderate Rain
06:00 17.0 16.6 97   7 4 12.9 97.37      
07:00 17.4 16.9 97     0 9.7 97.42     Rain
08:00 18.0 17.0 94   16 6 9.7 97.43     Rain, Fog
09:00 18.5 18.0 97   24 11 9.7 97.45     Drizzle, Fog
10:00 19.5 17.4 88   23 6 19.3 97.44     Mostly Cloudy
11:00 20.5 17.8 85   23 9 19.3 97.42 26   Mostly Cloudy
12:00 21.8 17.6 77   25 7 19.3 97.39 28   Mostly Cloudy
13:00 22.7 16.7 69   22 11 19.3 97.36 28   Mostly Cloudy
14:00 19.7 16.3 81   33 6 19.3 97.40     Mostly Cloudy
15:00 19.3 17.6 90   1 4 16.1 97.40     Rain Showers
16:00 19.4 18.3 93   2 4 19.3 97.44     Mostly Cloudy
17:00 19.4 18.3 93   35 4 15.0 97.46      
18:00 20.9 18.6 87     0 15.0 97.51 27    
19:00 19.1 18.3 95     0 15.0 97.56      
20:00 18.1 17.6 97     0 15.0 97.61      
21:00 18.1 17.6 97   24 7 8.0 97.68     Rain
22:00 17.9 17.3 96     0 15.0 97.70     Rain
23:00 16.6 16.4 99     0 1.4 97.72      

Notes on Data Quality.

Legend

  • E = Estimated
  • M = Missing
  • NA = Not Available*
  • [empty] = Indicates an unobserved value
Date modified: